�N����,����,�~����,�C��,���x,�C��,����,���ϕ���,�ő�u�ԕ���,�ő厞����,���˗�,�I�_���x,�n�����x,�ő啗���N��,DTYPE
"17/09/11","00:10",0.0,21.7,89.4,1008.6,279.5,0.8,1.2,270.9,0.00,19.9,24.5,"00:08:40",1
"17/09/11","00:20",0.0,21.7,89.8,1008.1,291.6,1.0,1.4,323.8,0.00,20.0,24.6,"00:19:44",1
"17/09/11","00:30",0.0,21.7,90.0,1007.8,300.7,1.3,2.0,310.2,0.00,20.0,24.4,"00:22:48",1
"17/09/11","00:40",0.0,21.8,90.0,1008.3,273.3,1.0,1.2,302.3,0.00,20.1,24.4,"00:31:52",1
"17/09/11","00:50",0.0,21.8,89.8,1008.1,304.4,1.3,2.1,332.4,0.00,20.1,24.1,"00:48:08",1
"17/09/11","01:00",0.0,21.8,90.1,1008.6,318.7,1.1,1.9,328.8,0.00,20.1,24.3,"00:59:44",1
"17/09/11","01:10",0.0,21.6,90.1,1008.3,292.4,1.1,2.0,332.5,0.00,19.9,24.2,"01:00:32",1
"17/09/11","01:20",0.0,21.5,90.2,1008.1,286.2,1.0,1.4,311.2,0.00,19.9,24.3,"01:19:28",1
"17/09/11","01:30",0.0,21.4,90.3,1008.1,280.3,1.0,1.7,316.7,0.00,19.8,24.2,"01:20:16",1
"17/09/11","01:40",0.0,21.3,90.4,1008.1,297.9,1.1,1.7,316.3,0.00,19.7,24.2,"01:32:40",1
"17/09/11","01:50",0.0,21.2,90.6,1008.1,324.1,1.1,2.0,330.9,0.00,19.6,24.2,"01:41:36",1
"17/09/11","02:00",0.0,21.0,90.9,1008.1,295.5,0.7,1.2,319.5,0.00,19.5,23.9,"01:50:24",1
"17/09/11","02:10",0.0,20.9,91.3,1008.1,278.9,0.7,1.2,307.2,0.00,19.5,24.0,"02:09:36",1
"17/09/11","02:20",0.0,20.9,91.5,1008.1,301.6,1.0,1.3,312.4,0.00,19.5,24.1,"02:11:52",1
"17/09/11","02:30",0.0,20.9,91.6,1008.3,313.9,1.0,1.4,319.9,0.00,19.5,23.7,"02:22:56",1
"17/09/11","02:40",0.0,20.8,92.0,1007.8,305.9,0.3,1.1,329.7,0.00,19.5,24.0,"02:39:04",1
"17/09/11","02:50",0.0,20.6,92.2,1007.8,299.8,0.7,1.0,305.7,0.00,19.3,23.8,"02:49:12",1
"17/09/11","03:00",0.0,20.6,92.6,1007.8,318.9,1.0,1.7,340.1,0.00,19.4,23.8,"02:52:56",1
"17/09/11","03:10",0.0,20.6,92.8,1007.6,320.8,1.0,1.2,322.9,0.00,19.4,23.8,"03:01:44",1
"17/09/11","03:20",0.0,20.5,92.9,1008.1,310.1,1.0,1.3,318.7,0.00,19.4,23.7,"03:16:56",1
"17/09/11","03:30",0.0,20.6,93.3,1007.8,305.3,0.7,1.1,316.3,0.00,19.5,23.6,"03:20:56",1
"17/09/11","03:40",0.0,20.7,93.3,1007.6,314.0,1.3,1.7,310.4,0.00,19.6,23.7,"03:31:52",1
"17/09/11","03:50",0.0,20.7,93.3,1008.1,302.5,1.0,1.8,332.1,0.00,19.6,23.7,"03:41:28",1
"17/09/11","04:00",0.0,20.8,93.3,1008.3,321.1,1.2,1.8,326.9,0.00,19.7,23.7,"03:50:24",1
"17/09/11","04:10",0.0,20.8,93.2,1008.1,321.1,1.2,2.0,337.1,0.00,19.7,23.4,"04:01:44",1
"17/09/11","04:20",0.0,20.7,93.2,1007.8,300.4,0.5,0.9,310.2,0.00,19.6,23.6,"04:19:04",1
"17/09/11","04:30",0.0,20.5,93.4,1008.1,301.4,0.6,1.3,328.0,0.00,19.4,23.6,"04:28:56",1
"17/09/11","04:40",0.0,20.4,93.6,1008.3,317.7,0.7,1.2,305.5,0.00,19.4,23.6,"04:36:00",1
"17/09/11","04:50",0.0,20.5,94.0,1008.3,317.8,1.0,1.6,325.5,0.00,19.5,23.5,"04:48:08",1
"17/09/11","05:00",0.0,20.4,93.9,1008.6,290.7,0.5,1.0,318.3,0.00,19.4,23.5,"04:50:24",1
"17/09/11","05:10",0.0,20.3,94.3,1008.6,310.2,0.8,1.2,328.1,0.00,19.4,23.5,"05:07:12",1
"17/09/11","05:20",0.0,20.3,94.4,1008.3,320.9,1.1,1.4,321.2,0.00,19.4,23.4,"05:11:52",1
"17/09/11","05:30",0.0,20.4,94.7,1008.6,284.5,0.8,1.3,267.7,0.00,19.6,23.4,"05:26:56",1
"17/09/11","05:40",0.0,20.7,94.7,1008.6,315.2,1.2,1.9,336.3,0.00,19.9,23.7,"05:35:04",1
"17/09/11","05:50",0.0,20.9,94.7,1008.6,312.7,0.7,1.6,318.9,0.00,20.1,23.3,"05:40:40",1
"17/09/11","06:00",0.0,21.0,94.7,1008.6,301.1,1.1,1.4,317.0,0.00,20.2,23.3,"05:55:04",1
"17/09/11","06:10",0.0,21.2,94.8,1008.6,300.9,0.8,1.6,308.2,0.00,20.4,23.4,"06:01:04",1
"17/09/11","06:20",0.0,21.4,94.5,1008.3,317.3,0.8,1.6,330.0,0.00,20.5,23.4,"06:16:24",1
"17/09/11","06:30",0.0,21.7,94.5,1008.3,296.4,0.8,1.4,302.1,0.01,20.8,23.5,"06:29:36",1
"17/09/11","06:40",0.0,21.9,94.3,1008.3,302.3,1.1,2.1,316.0,0.02,21.0,23.4,"06:30:32",1
"17/09/11","06:50",0.0,22.3,94.0,1008.3,314.4,1.1,1.6,333.1,0.05,21.3,23.5,"06:48:24",1
"17/09/11","07:00",0.0,22.7,93.4,1008.3,323.1,1.1,1.7,322.9,0.02,21.6,23.5,"06:58:08",1
"17/09/11","07:10",0.0,22.9,93.0,1008.1,325.3,1.1,1.4,334.1,0.02,21.7,23.6,"07:01:12",1
"17/09/11","07:20",0.0,23.1,92.1,1008.1,301.9,1.0,1.7,334.2,0.04,21.8,23.7,"07:11:36",1
"17/09/11","07:30",0.0,23.7,88.5,1007.8,315.3,0.7,1.3,341.3,0.07,21.7,23.8,"07:29:20",1
"17/09/11","07:40",0.0,24.9,84.9,1007.6,280.8,0.6,1.1,350.4,0.12,22.2,23.8,"07:30:16",1
"17/09/11","07:50",0.0,25.4,80.2,1007.6,277.4,0.5,1.2,220.6,0.12,21.8,23.7,"07:47:28",1
"17/09/11","08:00",0.0,25.9,78.0,1007.6,222.2,0.3,1.2,270.8,0.13,21.8,24.0,"07:58:40",1
"17/09/11","08:10",0.0,26.8,75.8,1007.4,145.9,0.3,1.0,180.9,0.20,22.2,24.0,"08:06:16",1
"17/09/11","08:20",0.0,26.8,73.5,1006.9,112.0,0.7,2.6,125.9,0.18,21.7,24.0,"08:16:24",1
"17/09/11","08:30",0.0,26.3,73.5,1006.7,117.9,1.0,2.4,108.2,0.14,21.2,24.1,"08:26:40",1
"17/09/11","08:40",0.0,26.3,74.1,1006.9,161.3,0.8,1.9,156.1,0.08,21.4,24.2,"08:38:56",1
"17/09/11","08:50",0.0,26.2,74.5,1006.7,152.1,0.8,1.8,114.7,0.10,21.3,24.0,"08:41:44",1
"17/09/11","09:00",0.0,26.4,73.4,1006.9,143.5,0.7,1.8,191.6,0.12,21.3,24.3,"08:50:08",1
"17/09/11","09:10",0.0,26.6,72.8,1006.7,93.4,0.7,2.0,78.9,0.10,21.4,24.5,"09:09:28",1
"17/09/11","09:20",0.0,26.6,73.4,1006.7,157.6,1.1,2.9,196.7,0.14,21.5,24.4,"09:19:36",1
"17/09/11","09:30",0.0,27.0,70.2,1007.1,155.8,1.1,2.2,207.0,0.19,21.1,24.5,"09:20:08",1
"17/09/11","09:40",0.0,27.5,70.5,1006.7,141.3,1.1,2.0,88.1,0.22,21.7,24.3,"09:36:00",1
"17/09/11","09:50",0.0,27.4,69.2,1006.4,139.5,1.3,3.4,120.1,0.22,21.3,24.7,"09:49:12",1
"17/09/11","10:00",0.0,27.7,68.6,1005.5,147.0,1.6,4.2,159.0,0.29,21.4,24.8,"09:54:00",1
"17/09/11","10:10",0.0,28.1,66.7,1006.2,168.8,1.5,3.3,203.2,0.25,21.4,24.8,"10:07:44",1
"17/09/11","10:20",0.0,28.8,64.1,1006.2,183.3,1.7,4.0,216.7,0.36,21.4,25.1,"10:13:28",1
"17/09/11","10:30",0.0,28.5,66.6,1006.0,164.2,1.5,3.3,207.2,0.21,21.7,25.2,"10:26:00",1
"17/09/11","10:40",0.0,28.3,64.4,1005.7,147.5,1.5,5.2,127.5,0.17,21.0,25.2,"10:35:28",1
"17/09/11","10:50",0.0,28.8,62.8,1005.7,163.2,1.3,4.0,148.4,0.21,21.0,25.3,"10:45:36",1
"17/09/11","11:00",0.0,28.8,62.4,1006.0,180.4,2.5,4.4,191.8,0.31,20.9,25.3,"10:58:48",1
"17/09/11","11:10",0.0,29.0,62.5,1005.5,156.0,1.6,3.7,142.5,0.26,21.2,25.3,"11:07:20",1
"17/09/11","11:20",0.0,29.6,61.1,1006.0,165.1,2.1,4.2,203.8,0.37,21.3,25.6,"11:13:36",1
"17/09/11","11:30",0.0,29.2,60.8,1005.7,173.5,2.3,5.8,206.3,0.28,20.9,25.6,"11:21:20",1
"17/09/11","11:40",0.0,28.9,60.8,1005.5,174.5,2.3,5.4,215.3,0.20,20.6,25.8,"11:32:24",1
"17/09/11","11:50",0.0,29.1,60.3,1004.8,159.1,1.8,5.5,205.7,0.23,20.7,25.8,"11:40:48",1
"17/09/11","12:00",0.0,29.4,60.1,1004.5,155.7,1.7,3.4,149.4,0.31,20.9,25.7,"11:53:28",1
"17/09/11","12:10",0.0,28.8,61.5,1004.5,150.5,2.0,4.0,207.4,0.19,20.7,25.8,"12:03:20",1
"17/09/11","12:20",0.0,28.6,62.5,1004.3,151.2,1.8,3.3,126.6,0.12,20.8,25.7,"12:12:24",1
"17/09/11","12:30",0.0,28.6,61.2,1004.3,159.1,2.0,4.1,113.6,0.14,20.4,25.7,"12:28:48",1
"17/09/11","12:40",0.0,28.7,60.8,1003.8,151.0,2.1,5.1,189.5,0.17,20.4,26.1,"12:34:24",1
"17/09/11","12:50",0.0,28.5,62.8,1003.4,152.7,2.0,5.1,130.5,0.10,20.8,25.7,"12:45:04",1
"17/09/11","13:00",0.0,28.7,60.1,1003.8,138.4,2.2,4.8,201.4,0.17,20.2,25.7,"12:58:40",1
"17/09/11","13:10",0.0,28.4,62.6,1003.8,151.9,2.0,5.9,134.2,0.10,20.6,25.8,"13:01:12",1
"17/09/11","13:20",0.0,27.9,63.6,1003.4,133.2,2.3,4.8,114.0,0.05,20.4,25.7,"13:13:36",1
"17/09/11","13:30",0.0,27.8,64.2,1003.1,160.0,2.0,4.0,118.7,0.11,20.5,25.6,"13:21:44",1
"17/09/11","13:40",0.0,27.8,64.0,1003.4,186.4,1.5,2.6,204.2,0.05,20.4,25.6,"13:31:52",1
"17/09/11","13:50",0.0,27.4,65.8,1003.4,168.4,1.8,3.5,161.5,0.02,20.5,25.6,"13:48:00",1
"17/09/11","14:00",0.0,27.1,65.6,1003.4,182.2,2.6,5.2,178.7,0.03,20.1,25.6,"13:52:00",1
"17/09/11","14:10",0.0,27.0,65.8,1003.6,197.4,2.3,6.3,233.5,0.01,20.1,25.6,"14:05:12",1
"17/09/11","14:20",0.0,27.0,66.1,1003.4,202.3,1.6,4.1,219.6,0.02,20.2,25.4,"14:12:48",1
"17/09/11","14:30",0.0,27.1,66.9,1003.1,197.2,1.3,3.5,222.8,0.02,20.5,25.2,"14:26:40",1
"17/09/11","14:40",0.0,27.0,67.5,1003.4,208.7,0.8,2.1,221.1,0.03,20.5,25.4,"14:32:48",1
"17/09/11","14:50",0.0,27.1,68.1,1003.4,218.6,0.8,2.4,135.8,0.02,20.7,25.5,"14:42:56",1
"17/09/11","15:00",0.0,27.2,64.7,1003.1,184.6,1.7,3.9,188.9,0.06,20.0,25.6,"14:59:44",1
"17/09/11","15:10",0.0,27.6,63.7,1002.9,179.2,1.7,3.4,170.6,0.08,20.1,25.4,"15:03:28",1
"17/09/11","15:20",0.0,27.7,63.6,1003.4,173.6,1.5,3.6,210.2,0.11,20.2,25.5,"15:18:24",1
"17/09/11","15:30",0.0,27.6,63.5,1003.1,180.4,1.7,4.1,160.5,0.07,20.1,25.4,"15:22:40",1
"17/09/11","15:40",0.0,27.4,64.8,1003.1,172.0,1.3,3.9,193.3,0.05,20.2,25.4,"15:36:08",1
"17/09/11","15:50",0.0,27.2,65.4,1003.4,155.3,1.1,2.8,159.2,0.04,20.2,25.5,"15:40:24",1
"17/09/11","16:00",0.0,26.9,66.5,1003.1,156.9,1.2,2.8,163.0,0.03,20.2,25.2,"15:50:48",1
"17/09/11","16:10",0.0,26.8,66.9,1002.9,175.2,1.3,3.1,206.2,0.03,20.2,25.3,"16:07:44",1
"17/09/11","16:20",0.0,26.7,67.1,1003.1,156.5,1.2,3.2,121.4,0.03,20.1,25.2,"16:15:52",1
"17/09/11","16:30",0.0,26.7,67.1,1002.9,150.3,1.2,3.5,125.4,0.03,20.1,25.1,"16:21:28",1
"17/09/11","16:40",0.0,26.6,67.7,1003.4,152.9,1.1,3.2,165.5,0.02,20.2,25.4,"16:37:20",1
"17/09/11","16:50",0.0,26.6,68.3,1003.4,101.8,0.7,2.5,110.1,0.01,20.3,25.1,"16:44:00",1
"17/09/11","17:00",0.0,26.3,69.0,1003.4,136.7,1.2,3.5,133.7,0.01,20.2,25.3,"16:59:20",1
"17/09/11","17:10",0.0,26.3,70.1,1003.6,171.0,1.1,2.6,126.0,0.00,20.5,25.3,"17:02:00",1
"17/09/11","17:20",0.0,26.1,70.7,1003.1,171.2,1.0,2.7,202.3,0.00,20.4,25.3,"17:18:32",1
"17/09/11","17:30",0.0,26.1,71.0,1003.4,183.4,0.8,2.0,211.7,0.00,20.5,25.2,"17:20:48",1
"17/09/11","17:40",0.0,26.0,71.4,1003.4,178.1,1.0,2.0,196.7,0.00,20.5,25.1,"17:32:24",1
"17/09/11","17:50",0.0,25.9,72.2,1003.1,183.8,0.7,2.1,224.9,0.00,20.6,24.9,"17:40:56",1
"17/09/11","18:00",0.0,25.7,73.1,1003.6,170.8,0.6,1.3,193.7,0.00,20.6,24.9,"17:57:52",1
"17/09/11","18:10",0.0,25.6,73.6,1003.4,170.4,0.6,1.8,166.4,0.00,20.6,24.9,"18:01:12",1
"17/09/11","18:20",0.0,25.5,73.8,1003.4,102.8,0.7,2.0,142.9,0.00,20.5,24.9,"18:15:36",1
"17/09/11","18:30",0.0,25.4,74.8,1003.4,350.1,0.6,1.1,355.8,0.00,20.6,24.8,"18:20:24",1
"17/09/11","18:40",0.0,24.7,77.3,1003.1,303.3,0.7,1.1,306.0,0.00,20.5,25.0,"18:34:24",1
"17/09/11","18:50",0.0,24.5,79.7,1003.4,335.9,0.5,0.9,333.1,0.00,20.8,24.7,"18:45:04",1
"17/09/11","19:00",0.0,24.3,81.4,1003.4,314.8,0.8,1.2,338.8,0.00,21.0,24.7,"18:56:32",1
"17/09/11","19:10",0.0,24.0,82.6,1003.8,318.6,0.8,1.3,324.0,0.00,20.9,24.5,"19:06:56",1
"17/09/11","19:20",0.0,23.8,83.7,1003.8,309.2,0.5,1.2,318.5,0.00,20.9,24.7,"19:19:44",1
"17/09/11","19:30",0.0,23.8,84.8,1003.6,319.4,1.0,1.9,332.0,0.00,21.1,24.8,"19:22:40",1
"17/09/11","19:40",0.0,23.6,85.1,1004.1,326.5,1.1,1.3,329.9,0.00,21.0,24.7,"19:30:48",1
"17/09/11","19:50",0.0,23.6,85.4,1004.3,296.2,0.8,1.3,286.1,0.00,21.0,24.7,"19:41:52",1
"17/09/11","20:00",0.0,23.5,85.7,1003.8,307.2,1.1,1.7,333.8,0.00,21.0,24.8,"19:51:44",1
"17/09/11","20:10",0.0,23.4,86.2,1004.1,276.0,1.1,1.7,316.4,0.00,21.0,24.7,"20:00:16",1
"17/09/11","20:20",0.0,23.4,86.5,1004.1,316.2,1.5,2.6,343.8,0.00,21.1,24.7,"20:13:04",1
"17/09/11","20:30",0.0,23.3,87.0,1004.1,279.3,1.0,1.4,245.9,0.00,21.1,24.5,"20:22:56",1
"17/09/11","20:40",0.0,23.2,87.5,1004.1,315.0,1.2,2.0,324.6,0.00,21.0,24.4,"20:38:32",1
"17/09/11","20:50",0.0,23.1,87.9,1004.3,296.0,1.1,1.8,303.2,0.00,21.0,24.6,"20:40:08",1
"17/09/11","21:00",0.0,23.0,88.5,1004.1,297.6,1.0,1.4,330.6,0.00,21.0,24.5,"20:53:04",1
"17/09/11","21:10",0.0,23.0,88.7,1004.1,283.8,1.2,2.1,337.9,0.00,21.1,24.5,"21:07:28",1
"17/09/11","21:20",0.0,23.0,88.7,1004.1,283.9,1.0,1.6,248.8,0.00,21.1,24.4,"21:14:40",1
"17/09/11","21:30",0.0,23.0,88.8,1004.1,290.8,1.1,1.9,320.8,0.00,21.1,24.5,"21:28:24",1
"17/09/11","21:40",0.0,23.1,89.1,1003.8,326.3,1.1,1.9,318.7,0.00,21.2,24.6,"21:31:28",1
"17/09/11","21:50",0.0,23.0,89.4,1003.8,291.0,1.0,1.3,303.2,0.00,21.2,24.3,"21:49:36",1
"17/09/11","22:00",0.0,22.9,89.8,1004.1,304.4,1.2,1.9,315.0,0.00,21.2,24.4,"21:58:48",1
"17/09/11","22:10",0.2,22.8,90.1,1004.1,282.8,1.1,1.6,279.3,0.00,21.1,24.2,"22:06:08",1
"17/09/11","22:20",0.0,22.7,90.7,1003.8,306.3,1.2,1.8,319.8,0.00,21.1,24.3,"22:14:08",1
"17/09/11","22:30",0.0,22.7,91.1,1003.8,291.8,0.8,1.2,313.6,0.00,21.2,24.2,"22:22:56",1
"17/09/11","22:40",0.0,22.7,91.4,1003.8,283.9,0.8,1.1,297.7,0.00,21.3,24.1,"22:36:00",1
"17/09/11","22:50",0.0,22.6,91.6,1003.6,284.9,0.8,1.3,271.3,0.00,21.2,24.3,"22:45:52",1
"17/09/11","23:00",0.0,22.6,91.8,1003.4,288.5,0.8,1.2,300.9,0.00,21.2,24.3,"22:58:08",1
"17/09/11","23:10",0.0,22.6,92.1,1003.6,326.5,1.1,2.2,328.6,0.00,21.3,24.2,"23:03:44",1
"17/09/11","23:20",0.0,22.6,92.3,1003.1,308.4,1.1,1.6,316.0,0.00,21.3,24.2,"23:10:32",1
"17/09/11","23:30",0.0,22.5,92.4,1002.6,292.8,1.0,1.6,310.1,0.00,21.2,24.1,"23:27:12",1
"17/09/11","23:40",0.0,22.4,92.6,1003.1,307.7,1.2,2.0,326.1,0.00,21.2,24.2,"23:39:12",1
"17/09/11","23:50",0.0,22.4,92.6,1002.9,286.7,1.1,2.1,340.6,0.00,21.2,24.3,"23:40:56",1
"17/09/11","24:00",0.0,22.4,92.5,1002.9,285.1,1.0,1.6,288.8,0.00,21.2,24.2,"23:56:48",1
